Regional Weather Roundup
Issued by NWS Midland/Odessa, TX

Skip options and go directly to product.
Home | Oldest Version | Previous Version | Current Version | All | Graphics & Text | Save Text | Print | Product List | Glossary On

Skip product version selection by date and time.   
106
ASUS44 KMAF 250910
RWRMAF
MIDLAND AREA WEATHER ROUNDUP
NATIONAL WEATHER SERVICE MIDLAND TX
300 AM CST SAT FEB 25 2017

...IN SOUTHWEST TEXAS AND SOUTHEAST NEW MEXICO...

CITY           SKY/WX    TMP DP  RH WIND       PRES   REMARKS
ALPINE         PTCLDY    42   2  19 W7        30.13S WCI  37
ANDREWS        FAIR      34  21  60 E9        30.10S WCI  26
ARTESIA        CLEAR     34  12  40 N6        30.10S WCI  29
BIG SPRING     CLEAR     38  23  53 NE15      30.13R WCI  30
CARLSBAD       CLEAR     40  13  33 NE9       30.06R WCI  34
DRYDEN           N/A     51  18  27 N10       30.03S
FORT STOCKTON  PTCLDY    47   5  18 W3        30.06S
GUAD PASS      CLEAR     38   7  27 SW15        N/A  WCI  29
HOBBS          CLEAR     36  18  48 NE8       30.11R WCI  29
MARFA          CLEAR     30   3  31 E7        30.09F WCI  23
MIDLAND AIRPK  CLEAR     41  24  50 E7        30.10S WCI  37
MIDLAND INTL   CLEAR     43  22  43 E17       30.08S WCI  35
ODESSA         CLEAR     42  22  44 E16       30.09S WCI  34
PECOS          CLEAR     38  11  32 S3        30.07R
PRESIDIO       FAIR      50   3  14 N9        30.05F
SEMINOLE       CLEAR     32  20  61 NE8       30.12S WCI  25
SNYDER         CLEAR     36  20  53 NE17      30.14R WCI  26
WINK           CLEAR     42  22  44 E6        30.05S WCI  38
$$
...OTHER STATIONS IN TEXAS...

CITY           SKY/WX    TMP DP  RH WIND       PRES   REMARKS
ABILENE        CLEAR     36  24  62 NE13      30.15R WCI  27
AMARILLO       CLEAR     22  15  75 NE5       30.14S WCI  16
AUSTIN         CLEAR     49  33  54 N13       30.07R
BROWNSVILLE    CLEAR     68  63  84 NE9       29.91F
CORPUS CHRISTI PTCLDY    60  42  51 NE16      29.98R
DALLAS FTW     CLEAR     42  25  50 NE16      30.12R WCI  34
DEL RIO        CLEAR     50  31  48 CALM      30.03R
EL PASO        CLEAR     47   7  19 W7        30.08S
HOUSTON INT    CLEAR     52  37  56 N7        30.02R
LUBBOCK        CLEAR     30  18  60 E10       30.12S WCI  21
SAN ANGELO     CLEAR     37  30  75 NE6       30.11R WCI  32
SAN ANTONIO    CLEAR     51  33  50 N12       30.04R
WACO           PTCLDY    40  33  76 N7        30.12R WCI  35
WICHITA FALLS  NOT AVBL
$$
...OTHER LOCATIONS IN NEW MEXICO...

CITY           SKY/WX    TMP DP  RH WIND       PRES   REMARKS
ALAMAGORDO     CLEAR     36   5  27 SE3       30.07F
ALBUQUERQUE    CLEAR     31  -1  25 NW3       30.09F
CANNON AFB     NOT AVBL
CLOVIS         CLEAR     19  10  68 N6        30.11S WCI  11
HOLLOMAN AFB   CLEAR     38   8  28 SE3       30.10F
ROSWELL        CLEAR     36   5  27 N9          N/A  WCI  29
RUIDOSO        CLEAR     27   0  31 S3        30.08F
SANTA FE       CLEAR     19   0  43 NW6       30.04F WCI  11
TRUTH OR CONSE CLEAR     37  11  34 N6        30.07R WCI  32
TUCUMCARI      CLEAR     20  11  68 NE6       30.12F WCI  12
$$